SCOUT A DEB, 2353

Orbit data source: Space-Track

SCOUT A DEB, 2353 is space debris in LEO originally from a launch on Sat, 26 Mar 1966 UTC launched from the Air Force Western Test Range (AFWTR). Debris objects in space refer to the collection of defunct objects orbiting the Earth. Examples of debris include non-operational satellites, rocket bodies, and fragments generated from explosions, collisions, or faulty payload assembly.

Loading next visibility...
Identifier
2353, 1966-024C
Orbit
LEO
Country
Flag of USUS
Related business
Manufacturer
Unknown
Mission
Spacecraft
Bus & Motor
Unknown
Mass
Unknown
Launch date (UTC)
1966-03-26 (60 years ago)
Launch vehicle
Unknown
Launch site
Air Force Western Test Range (AFWTR)
Object type
Payload
Rocket body
Debris
Shape & HBR
Unknown shape, 0.1 m
Radar Cross Section
Small (<0.1 m²)

Expand to show TLE details & history
Last TLE update: 1 day ago

TLE from 1 day ago
0 SCOUT A DEB
1 02353U 66024C   25298.73897441  .00000298  00000-0  26322-3 0  9997
2 02353  89.3965  28.8012 0153077  61.0967 300.5457 13.77404626982764
Epoch: 2025-10-25T17:44Z
TLE epoch observation values (Epoch: 2025-10-25T17:44:07.389Z)
Latitude
-0.00005°
Longitude
88.40521°
Altitude
920.19 km
Speed
7.42 km/s
True Right ascension
01h 55m 12s
True Declination
0° 00' 00"
Sunlit
Object was in full shadow at epoch
Visualization orbit readout
Latitude
Unknown
Longitude
Unknown
Altitude
Unknown
Speed
Unknown
Apparent Right ascension
Unknown
Apparent Declination
Unknown
Sunlit
N/A
Visualization observer readout
Local Sidereal Time
13:48:16
Azimuth
Unknown
Elevation
Unknown
Doppler factor
Unknown
Orbital elements
Apogee altitude
1,082.601 km
Perigee altitude
857.632 km
Semi-major axis
7,348.253 km
Eccentricity
0.01531
Inclination
89.3965°
RAAN
28.8012°
Arg. of periapsis
61.0967°
True anomaly
299.02035°
Mean anomaly
300.5457°
Eccentric anomaly
299.78449°
Mean motion
3.44562 °/min
Orbital period
104.48 mins
BSTAR
0.00026322
Loading maneuver chart data...
Computing Atmospheric mass density...
Loading historical data...
Loading historical data...
Loading historical data...
Loading historical data...
Loading historical data...
Loading historical data...
Loading historical data...

Documentation

Showing up to 5 results
|